[[{"header":{"parameterUnit":"m.s-1","parameterCategory":1,"la1":30.2991,"la2":30.254,"lo1":-89.0895,"lo2":-89.0444,"dy":0.0017,"dx":0.0017,"nx":28,"ny":28,"refTime":"2024-03-27T09:00:00:Z","depth":0,"parameterNumber":2,"parameterNumberName":"U-component_of_WINDS"},"data":[0,0,0,0,0,0,0,0,0,0,0,0,0,0,0,0,0,0,0,0,0,0,0,0,0,0,0,0,0,0,0,0,0,0,0,0,0,0,0,0,0,0,0,0,0,0,0,0,0,0,0,0,0,0,0,0,0,0,-1.1326,-1.1326,0,-1.1332,-1.1332,-1.1332,-1.1318,-1.1318,-1.1317,-1.1317,-1.1324,-1.1325,-1.1326,0,0,0,0,0,0,0,0,0,0,0,0,0,-1.1302,-1.1302,-1.1326,-1.1326,-1.1326,-1.1332,-1.1332,-1.1332,-1.1318,-1.1318,-1.1317,-1.1317,-1.1324,-1.1325,-1.1326,0,0,0,0,0,0,0,0,0,0,0,0,0,-1.1311,-1.1302,-1.1326,-1.132,-1.1319,-1.1332,-1.1332,-1.1332,-1.1318,-1.1318,-1.1317,-1.1316,-1.1324,-1.1325,-1.1326,-1.1345,0,0,-1.1328,-1.1329,0,0,0,0,0,0,0,0,-1.131,-1.1311,-1.132,-1.132,-1.1319,-1.1324,-1.1326,-1.1336,-1.1319,-1.1319,-1.1317,-1.1316,-1.1325,-1.1325,-1.1328,-1.1345,-1.1345,-1.1329,-1.1329,-1.133,-1.133,0,0,0,0,0,0,0,-1.1309,-1.1311,-1.1328,-1.1321,-1.132,-1.1317,-1.1317,-1.1328,-1.1325,-1.1319,-1.1318,-1.1319,-1.1324,-1.1327,-1.1328,-1.1346,-1.1329,-1.1329,-1.133,-1.133,-1.1377,-1.1378,0,0,0,0,0,0,-1.131,-1.1311,-1.1328,-1.1328,-1.1313,-1.1318,-1.1318,-1.1323,-1.1325,-1.1325,-1.1319,-1.1318,-1.1326,-1.1327,-1.1328,-1.135,-1.133,-1.133,-1.1331,-1.1377,-1.1378,-1.1378,0,0,0,0,0,0,-1.1309,-1.1311,-1.1328,-1.1319,-1.1321,-1.1319,-1.1324,-1.1323,-1.1326,-1.1326,-1.1325,-1.1323,-1.1326,-1.1327,-1.1341,-1.135,-1.1331,-1.1332,-1.1376,-1.1377,-1.1378,-1.1395,0,0,0,0,0,0,-1.1308,-1.1311,-1.1318,-1.1319,-1.1321,-1.134,-1.1325,-1.1324,-1.1328,-1.1326,-1.1329,-1.1329,-1.1325,-1.1339,-1.1341,-1.1351,-1.1332,-1.1375,-1.1376,-1.1378,-1.1393,-1.1396,-1.1399,0,0,0,0,0,-1.1308,-1.1323,-1.1319,-1.1321,-1.1331,-1.134,-1.1341,-1.1337,-1.1329,-1.1336,-1.1335,-1.1328,-1.1349,-1.1341,-1.1343,-1.1353,-1.1374,-1.1376,-1.1378,-1.1392,-1.1396,-1.1399,0,0,0,0,0,0,-1.1324,-1.1323,-1.1318,-1.1335,-1.1338,-1.1338,-1.1347,-1.1341,-1.1347,-1.1345,-1.1339,-1.134,-1.1354,-1.1355,-1.1346,-1.1372,-1.136,-1.1362,-1.1371,-1.1374,-1.1377,-1.1376,-1.1333,0,0,0,0,0,-1.133,-1.1337,-1.1336,-1.1351,-1.1352,-1.1349,-1.1354,-1.135,-1.1353,-1.1354,-1.1354,-1.1357,-1.1364,-1.1369,-1.1376,-1.1393,-1.1393,-1.1401,-1.1404,-1.1406,-1.1408,-1.1417,-1.142,-1.1384,-1.1384,-1.1384,0,0,-1.1341,-1.1342,-1.1347,-1.1354,-1.1356,-1.1364,-1.1351,-1.136,-1.1366,-1.1355,-1.1368,-1.1368,-1.1371,-1.1387,-1.1393,-1.1388,-1.1418,-1.1408,-1.141,-1.1411,-1.1419,-1.1422,-1.1426,-1.1385,-1.1384,-1.1384,0,0,-1.1366,-1.1368,-1.1379,-1.1381,-1.1384,-1.1381,-1.1384,-1.1385,-1.1385,-1.1397,-1.1389,-1.1396,-1.1408,-1.1411,-1.1413,-1.1438,-1.1432,-1.144,-1.1455,-1.1463,-1.1466,-1.1469,-1.1477,-1.148,-1.1442,-1.1442,-1.1442,0,-1.138,-1.1392,-1.1386,-1.1396,-1.1399,-1.1389,-1.1401,-1.1403,-1.1408,-1.141,-1.1404,-1.1418,-1.142,-1.1435,-1.1441,-1.1444,-1.1447,-1.144,-1.1466,-1.1469,-1.1471,-1.1479,-1.1482,-1.1443,-1.1443,-1.1443,-1.1443,0,-1.1409,-1.1417,-1.1427,-1.1431,-1.1435,-1.1446,-1.1441,-1.1446,-1.1442,-1.144,-1.1453,-1.1454,-1.146,-1.1463,-1.1459,-1.1478,-1.1474,-1.1467,-1.1456,-1.1476,-1.1483,-1.1486,-1.1445,-1.1445,-1.1444,-1.1444,0,0,-1.1446,-1.1445,-1.1449,-1.145,-1.1452,-1.1458,-1.1468,-1.1474,-1.1478,-1.1481,-1.1489,-1.1499,-1.1492,-1.1496,-1.1492,-1.1499,-1.1518,-1.1491,-1.1491,-1.1496,-1.1538,-1.1543,-1.1547,-1.1514,-1.1514,-1.1515,-1.1537,0,-1.147,-1.1487,-1.1482,-1.1499,-1.1506,-1.1496,-1.1505,-1.1506,-1.1505,-1.1511,-1.1509,-1.1516,-1.1507,-1.1509,-1.1515,-1.1514,-1.1526,-1.1513,-1.1521,-1.1521,-1.152,-1.1551,-1.1556,-1.1578,-1.154,-1.1541,-1.1541,0,-1.1501,-1.1505,-1.1522,-1.1522,-1.1525,-1.1532,-1.1537,-1.1542,-1.1544,-1.1542,-1.1545,-1.154,-1.1549,-1.1538,-1.1551,-1.1541,-1.1544,-1.1544,-1.1545,-1.1545,-1.1532,-1.1552,-1.1585,-1.1588,-1.1546,-1.1545,-1.1545,0,-1.1525,-1.1535,-1.1546,-1.1548,-1.1548,-1.1553,-1.1553,-1.1554,-1.1558,-1.1561,-1.1563,-1.1568,-1.1571,-1.1575,-1.157,-1.1562,-1.1584,-1.1572,-1.1583,-1.1583,-1.1588,-1.1587,-1.1621,-1.159,-1.159,-1.159,-1.159,0,-1.1553,-1.1564,-1.1557,-1.1564,-1.1576,-1.157,-1.1582,-1.1581,-1.1581,-1.1588,-1.158,-1.1586,-1.158,-1.1586,-1.1583,-1.1594,-1.1595,-1.1594,-1.1593,-1.1594,-1.1595,-1.1596,-1.1595,-1.1591,-1.1591,-1.159,-1.159,0,-1.1583,-1.1578,-1.159,-1.1588,-1.1588,-1.1597,-1.1595,-1.1602,-1.1599,-1.1608,-1.1609,-1.1606,-1.1612,-1.1608,-1.1615,-1.1612,-1.1626,-1.1623,-1.1626,-1.1625,-1.1635,-1.1634,-1.1671,-1.1676,-1.1642,-1.1642,-1.1643,0,-1.1601,-1.1609,-1.1607,-1.1611,-1.1611,-1.1618,-1.1621,-1.1614,-1.1618,-1.162,-1.1626,-1.1631,-1.1635,-1.1646,-1.1644,-1.1649,-1.1646,-1.1658,-1.1646,-1.1647,-1.1645,-1.1645,-1.1645,-1.1661,-1.1661,-1.1661,-1.1662,0,-1.1633,-1.163,-1.1634,-1.1638,-1.1642,-1.1644,-1.1646,-1.165,-1.1644,-1.1648,-1.1654,-1.1657,-1.1663,-1.1669,-1.1672,-1.1673,-1.1666,-1.1665,-1.1668,-1.167,-1.167,-1.167,-1.1632,-1.1665,-1.1664,-1.1664,-1.1664,-1.1664,-1.1657,-1.1663,-1.1663,-1.1668,-1.1669,-1.167,-1.1676,-1.1674,-1.1679,-1.1683,-1.1679,-1.1686,-1.1687,-1.1691,-1.1692,-1.1697,-1.1692,-1.1696,-1.1697,-1.1698,-1.1699,-1.167,-1.1698,-1.1698,-1.1698,-1.1698,-1.1698,0,-1.1688,-1.1687,-1.1692,-1.1694,-1.1698,-1.1691,-1.1693,-1.1697,-1.1703,-1.1704,-1.1708,-1.1714,-1.1719,-1.1717,-1.1721,-1.1726,-1.1723,-1.1727,-1.1727,-1.1727,-1.1704,-1.1701,-1.173,-1.173,-1.173,-1.173,-1.173,-1.1729,-1.1705,-1.1715,-1.1712,-1.1722,-1.1721,-1.1728,-1.1729,-1.1731,-1.1731,-1.1739,-1.1742,-1.1741,-1.174,-1.1744,-1.1749,-1.1748,-1.175,-1.1755,-1.1753,-1.1732,-1.1729,-1.1726,-1.1723,-1.1755,-1.1755,-1.1775,-1.1776,-1.1776]},{"header":{"parameterUnit":"m.s-1","parameterCategory":1,"la1":30.2991,"la2":30.254,"lo1":-89.0895,"lo2":-89.0444,"dy":0.0017,"dx":0.0017,"nx":28,"ny":28,"refTime":"2024-03-27T09:00:00:Z","depth":0,"parameterNumber":3,"parameterNumberName":"V-component_of_WINDS"},"data":[0,0,0,0,0,0,0,0,0,0,0,0,0,0,0,0,0,0,0,0,0,0,0,0,0,0,0,0,0,0,0,0,0,0,0,0,0,0,0,0,0,0,0,0,0,0,0,0,0,0,0,0,0,0,0,0,0,0,-1.2522,-1.2524,0,-1.2698,-1.27,-1.2702,-1.2737,-1.2736,-1.2735,-1.2734,-1.2912,-1.2917,-1.2923,0,0,0,0,0,0,0,0,0,0,0,0,0,-1.2216,-1.2222,-1.2522,-1.2524,-1.2526,-1.2697,-1.27,-1.2702,-1.2738,-1.2736,-1.2734,-1.2733,-1.291,-1.2917,-1.2924,0,0,0,0,0,0,0,0,0,0,0,0,0,-1.2366,-1.2223,-1.2521,-1.2565,-1.257,-1.2697,-1.27,-1.2703,-1.2738,-1.2736,-1.2734,-1.2732,-1.2907,-1.2916,-1.2925,-1.302,0,0,-1.2952,-1.2956,0,0,0,0,0,0,0,0,-1.2358,-1.2377,-1.2556,-1.2562,-1.2568,-1.2694,-1.2657,-1.2809,-1.2739,-1.2674,-1.2734,-1.2731,-1.2841,-1.2855,-1.2892,-1.3029,-1.3036,-1.2953,-1.2959,-1.2962,-1.2965,0,0,0,0,0,0,0,-1.2347,-1.237,-1.2591,-1.2559,-1.2566,-1.2575,-1.2594,-1.2686,-1.2766,-1.268,-1.2683,-1.2703,-1.2844,-1.2883,-1.2897,-1.3039,-1.2953,-1.2961,-1.2966,-1.297,-1.3264,-1.3266,0,0,0,0,0,0,-1.2329,-1.2361,-1.2586,-1.2597,-1.2456,-1.2582,-1.2603,-1.2655,-1.2766,-1.278,-1.2705,-1.2704,-1.2869,-1.2886,-1.2903,-1.3023,-1.2962,-1.2971,-1.2976,-1.3261,-1.3264,-1.3267,0,0,0,0,0,0,-1.2323,-1.2349,-1.2579,-1.248,-1.251,-1.259,-1.2648,-1.266,-1.27,-1.2784,-1.2799,-1.2731,-1.2868,-1.289,-1.2991,-1.303,-1.2975,-1.2983,-1.3258,-1.3262,-1.3266,-1.3263,0,0,0,0,0,0,-1.2314,-1.2346,-1.2383,-1.248,-1.2515,-1.2664,-1.265,-1.2665,-1.2716,-1.2717,-1.2813,-1.2827,-1.2868,-1.2978,-1.3,-1.3041,-1.299,-1.3255,-1.326,-1.3264,-1.326,-1.3266,-1.3271,0,0,0,0,0,-1.2303,-1.2375,-1.2385,-1.2412,-1.2563,-1.2666,-1.2686,-1.2733,-1.2718,-1.2757,-1.2811,-1.2824,-1.3022,-1.2988,-1.3013,-1.3057,-1.3253,-1.3259,-1.3264,-1.3257,-1.3265,-1.3271,0,0,0,0,0,0,-1.228,-1.2388,-1.2401,-1.2507,-1.2577,-1.2672,-1.2722,-1.2739,-1.2814,-1.2812,-1.2867,-1.2888,-1.2986,-1.3032,-1.2992,-1.3156,-1.3137,-1.3147,-1.3123,-1.3131,-1.3136,-1.3123,-1.2997,0,0,0,0,0,-1.2287,-1.2362,-1.2453,-1.2538,-1.2573,-1.2641,-1.2688,-1.2718,-1.2793,-1.2822,-1.2884,-1.2956,-1.3034,-1.3085,-1.3162,-1.3267,-1.3288,-1.331,-1.3315,-1.3319,-1.3328,-1.3388,-1.3399,-1.3285,-1.3285,-1.3285,0,0,-1.2303,-1.2372,-1.2416,-1.2535,-1.2593,-1.267,-1.2666,-1.2747,-1.2804,-1.2835,-1.2934,-1.2982,-1.3065,-1.3169,-1.3218,-1.321,-1.3365,-1.3326,-1.3329,-1.3336,-1.3395,-1.3405,-1.3415,-1.3288,-1.3288,-1.3287,0,0,-1.2371,-1.243,-1.2508,-1.2567,-1.2655,-1.27,-1.2719,-1.2812,-1.2845,-1.2946,-1.2971,-1.304,-1.3174,-1.3233,-1.328,-1.3372,-1.3387,-1.3395,-1.3425,-1.3482,-1.3491,-1.35,-1.3533,-1.3544,-1.3404,-1.3404,-1.3404,0,-1.2379,-1.2496,-1.2546,-1.2626,-1.2678,-1.2711,-1.279,-1.2844,-1.2952,-1.2988,-1.2978,-1.3148,-1.3206,-1.3324,-1.3347,-1.3384,-1.3407,-1.3385,-1.3486,-1.3495,-1.3503,-1.3536,-1.3548,-1.3404,-1.3404,-1.3404,-1.3404,0,-1.2503,-1.2583,-1.2636,-1.2741,-1.2799,-1.2878,-1.294,-1.2992,-1.3018,-1.3064,-1.3166,-1.3238,-1.333,-1.3361,-1.3385,-1.3483,-1.3476,-1.3475,-1.3457,-1.3514,-1.3545,-1.3558,-1.3405,-1.3405,-1.3405,-1.3404,0,0,-1.2561,-1.2693,-1.2712,-1.2761,-1.2861,-1.2924,-1.3005,-1.3096,-1.3141,-1.3215,-1.3284,-1.3397,-1.3398,-1.3452,-1.3484,-1.3535,-1.3604,-1.3529,-1.3531,-1.3541,-1.3717,-1.3716,-1.373,-1.3614,-1.3617,-1.3619,-1.371,0,-1.2642,-1.2788,-1.2836,-1.2957,-1.3033,-1.3065,-1.3136,-1.3205,-1.3251,-1.3321,-1.3371,-1.3451,-1.3445,-1.3478,-1.353,-1.3585,-1.364,-1.3579,-1.368,-1.3683,-1.3658,-1.3747,-1.3747,-1.3829,-1.3722,-1.3724,-1.3726,0,-1.2756,-1.2833,-1.2962,-1.3054,-1.3088,-1.3151,-1.3239,-1.3306,-1.3385,-1.3415,-1.3475,-1.3504,-1.359,-1.3566,-1.3685,-1.3643,-1.3687,-1.372,-1.3724,-1.3736,-1.3708,-1.3761,-1.3856,-1.3868,-1.3746,-1.3744,-1.3743,0,-1.2786,-1.2922,-1.3018,-1.3058,-1.3168,-1.3211,-1.3259,-1.3336,-1.3388,-1.3465,-1.35,-1.3585,-1.3632,-1.3697,-1.3748,-1.3726,-1.3863,-1.3843,-1.389,-1.3889,-1.3917,-1.3915,-1.4021,-1.3945,-1.3945,-1.3944,-1.3944,0,-1.2872,-1.295,-1.3033,-1.3092,-1.3181,-1.3234,-1.3321,-1.337,-1.3439,-1.3508,-1.354,-1.3604,-1.3667,-1.3739,-1.3779,-1.3872,-1.3893,-1.3919,-1.3929,-1.3917,-1.3913,-1.3946,-1.3942,-1.3948,-1.3947,-1.3946,-1.3946,0,-1.2921,-1.2979,-1.3086,-1.3181,-1.3207,-1.3268,-1.335,-1.3408,-1.3455,-1.3542,-1.3566,-1.364,-1.3726,-1.3783,-1.3894,-1.3921,-1.4022,-1.403,-1.3996,-1.4001,-1.4044,-1.404,-1.4176,-1.4197,-1.4106,-1.4107,-1.4107,0,-1.2972,-1.3033,-1.3135,-1.3184,-1.3232,-1.331,-1.3364,-1.342,-1.3474,-1.357,-1.3617,-1.3706,-1.378,-1.3917,-1.398,-1.4065,-1.4076,-1.4118,-1.4089,-1.4075,-1.4077,-1.4073,-1.408,-1.4122,-1.4123,-1.4124,-1.4124,0,-1.3056,-1.3083,-1.3159,-1.3247,-1.3311,-1.3382,-1.3453,-1.3491,-1.3559,-1.3619,-1.3708,-1.3766,-1.3879,-1.3968,-1.4058,-1.4107,-1.4127,-1.4133,-1.4148,-1.4137,-1.4115,-1.4128,-1.4009,-1.413,-1.4129,-1.4129,-1.4128,-1.4128,-1.3109,-1.3165,-1.3246,-1.3331,-1.3391,-1.3457,-1.3517,-1.3572,-1.3648,-1.3745,-1.3773,-1.3867,-1.3945,-1.4069,-1.412,-1.4194,-1.4189,-1.4211,-1.4217,-1.4221,-1.4222,-1.4102,-1.421,-1.421,-1.421,-1.421,-1.421,0,-1.3196,-1.325,-1.3327,-1.3427,-1.3494,-1.3508,-1.3587,-1.3642,-1.3725,-1.3796,-1.3869,-1.3973,-1.4058,-1.4129,-1.4217,-1.4263,-1.4274,-1.4284,-1.4282,-1.4293,-1.4221,-1.4199,-1.4274,-1.4274,-1.4274,-1.4274,-1.4274,-1.4274,-1.3249,-1.3345,-1.3381,-1.3508,-1.3562,-1.3654,-1.3699,-1.376,-1.3818,-1.3932,-1.4004,-1.405,-1.4122,-1.4216,-1.4295,-1.4314,-1.4345,-1.4353,-1.4373,-1.4305,-1.4298,-1.4291,-1.4271,-1.4359,-1.4359,-1.4439,-1.444,-1.4441]}]]